Date String (YYYY-MM-DD hh:mm:ss) UTC,Instrument flags,absolute air pressure of the measurement (hPa),sample flow rate (lpm),inlet stack bypass flow (lpm),air temperature of the measurement (°C),ambient temperature measured by the external sensor (°C),aerosol sample conditioner tube jacket temperature (°C),OPC LED temperature (°C),internal box temperature (°C),relative humidity of the measurement (%),span deviation,mass concentration of particles derived from Lorenz-Mie calculation of OPC scattering (μg/m³),mass concentration of particles derived from Lorenz-Mie calculation of OPC scattering (μg/m³),mass concentration of particles derived from Lorenz-Mie calculation of OPC scattering (μg/m³)
DateTimeUTC,F1_M11,P_M11,Q1_M11,Q2_M11,T1_M11,T2_M11,T3_M11,T4_M11,T5_M11,U1_M11,ZSPAN_M11,X2_M11,X0_M11,X1_M11
2024-01-14 01:00:00,SystemResetWarning,0825.2,5.00,000.00,019.2,018.9,000.0,027.4,020.4,3.2,0000.0,0003.40,0005.84,0003.15
2024-01-14 01:01:00,SystemResetWarning,0825.2,5.01,000.00,019.1,018.8,000.0,027.4,020.2,3.2,0000.0,0003.41,0005.89,0003.15
2024-01-14 01:02:00,SystemResetWarning,0825.4,5.01,000.00,019.1,018.6,000.0,027.4,020.1,3.2,0000.0,0003.41,0005.91,0003.14
2024-01-14 01:03:00,SystemResetWarning,0825.4,5.01,000.00,019.0,018.4,000.0,027.4,020.0,3.2,0000.0,0003.41,0005.86,0003.15
2024-01-14 01:04:00,SystemResetWarning,0825.4,4.99,000.00,019.0,018.3,000.0,027.4,020.0,3.2,0000.0,0003.41,0005.90,0003.15
2024-01-14 01:05:00,SystemResetWarning,0825.2,4.99,000.00,019.0,018.2,000.0,027.4,020.0,3.2,0000.0,0003.45,0006.11,0003.16
2024-01-14 01:06:00,SystemResetWarning,0825.2,4.99,000.00,019.0,018.1,000.0,027.4,020.0,3.3,0000.0,0003.49,0006.24,0003.17
2024-01-14 01:07:00,SystemResetWarning,0825.2,5.01,000.00,019.0,018.0,000.0,027.4,020.1,3.3,0000.0,0003.53,0006.40,0003.18
2024-01-14 01:08:00,SystemResetWarning,0825.2,5.01,000.00,019.0,018.4,000.0,027.4,020.6,3.3,0000.0,0003.53,0005.54,0003.19
2024-01-14 01:09:00,SystemResetWarning,0825.3,5.00,000.00,019.2,019.0,000.0,027.4,020.9,3.2,0000.0,0003.55,0005.41,0003.20
2024-01-14 01:10:00,SystemResetWarning,0825.3,4.99,000.00,019.2,019.1,000.0,027.4,020.7,3.2,0000.0,0003.56,0005.42,0003.20
2024-01-14 01:11:00,SystemResetWarning,0825.2,4.99,000.00,019.2,019.0,000.0,027.4,020.4,3.2,0000.0,0003.56,0005.43,0003.22
2024-01-14 01:12:00,SystemResetWarning,0825.1,5.01,000.00,019.1,018.8,000.0,027.4,020.3,3.2,0000.0,0003.56,0005.35,0003.23
2024-01-14 01:13:00,SystemResetWarning,0825.2,5.00,000.00,019.1,018.6,000.0,027.4,020.1,3.3,0000.0,0003.57,0005.32,0003.25
2024-01-14 01:14:00,SystemResetWarning,0825.3,5.01,000.00,019.1,018.4,000.0,027.4,020.0,3.2,0000.0,0003.59,0005.55,0003.26
2024-01-14 01:15:00,SystemResetWarning,0825.3,5.00,000.00,019.0,018.3,000.0,027.4,020.0,3.3,0000.0,0003.59,0005.57,0003.26
2024-01-14 01:16:00,SystemResetWarning,0825.2,4.99,000.00,019.0,018.2,000.0,027.4,020.0,3.3,0000.0,0003.58,0005.44,0003.26
2024-01-14 01:17:00,SystemResetWarning,0825.3,4.99,000.00,019.0,018.1,000.0,027.4,020.0,3.3,0000.0,0003.60,0005.54,0003.28
2024-01-14 01:18:00,SystemResetWarning,0825.2,5.01,000.00,019.0,018.1,000.0,027.4,020.1,3.3,0000.0,0003.61,0005.57,0003.29
2024-01-14 01:19:00,SystemResetWarning,0825.1,5.02,000.00,019.0,018.3,000.0,027.4,020.5,3.3,0000.0,0003.64,0005.77,0003.30
2024-01-14 01:20:00,SystemResetWarning,0825.1,4.99,000.00,019.1,019.0,000.0,027.4,020.9,3.3,0000.0,0003.64,0005.89,0003.31
2024-01-14 01:21:00,SystemResetWarning,0825.2,4.99,000.00,019.2,019.2,000.0,027.4,020.8,3.3,0000.0,0003.64,0005.86,0003.31
2024-01-14 01:22:00,SystemResetWarning,0825.1,5.00,000.00,019.2,019.0,000.0,027.4,020.5,3.3,0000.0,0003.63,0005.77,0003.30
2024-01-14 01:23:00,SystemResetWarning,0825.3,5.01,000.00,019.2,018.8,000.0,027.4,020.3,3.3,0000.0,0003.67,0005.93,0003.30
2024-01-14 01:24:00,SystemResetWarning,0825.3,5.01,000.00,019.1,018.6,000.0,027.4,020.1,3.3,0000.0,0003.68,0005.97,0003.30
2024-01-14 01:25:00,SystemResetWarning,0825.1,5.00,000.00,019.1,018.4,000.0,027.4,020.0,3.3,0000.0,0003.69,0005.91,0003.31
2024-01-14 01:26:00,SystemResetWarning,0825.1,5.00,000.00,019.0,018.3,000.0,027.4,020.0,3.3,0000.0,0003.71,0006.17,0003.31
2024-01-14 01:27:00,SystemResetWarning,0825.1,5.00,000.00,019.0,018.1,000.0,027.4,020.0,3.3,0000.0,0003.74,0006.55,0003.30
2024-01-14 01:28:00,SystemResetWarning,0825.2,5.00,000.00,019.0,018.0,000.0,027.4,020.0,3.3,0000.0,0003.70,0006.45,0003.28
2024-01-14 01:29:00,SystemResetWarning,0825.3,5.00,000.00,019.0,018.0,000.0,027.4,020.1,3.3,0000.0,0003.68,0006.40,0003.28
2024-01-14 01:30:00,SystemResetWarning,0825.3,5.01,000.00,019.1,018.4,000.0,027.4,020.6,3.3,0000.0,0003.65,0006.20,0003.26
2024-01-14 01:31:00,SystemResetWarning,0825.3,4.99,000.00,019.2,019.1,000.0,027.4,021.0,3.3,0000.0,0003.64,0006.00,0003.25
2024-01-14 01:32:00,SystemResetWarning,0825.1,4.99,000.00,019.3,019.4,000.0,027.4,021.0,3.3,0000.0,0003.64,0006.00,0003.25
2024-01-14 01:33:00,SystemResetWarning,0825.0,5.00,000.00,019.3,019.3,000.0,027.4,020.7,3.3,0000.0,0003.65,0006.08,0003.26
2024-01-14 01:34:00,SystemResetWarning,0825.0,5.00,000.00,019.2,019.1,000.0,027.4,020.4,3.3,0000.0,0003.63,0006.08,0003.26
2024-01-14 01:35:00,SystemResetWarning,0825.1,5.01,000.00,019.2,018.8,000.0,027.4,020.2,3.3,0000.0,0003.62,0006.10,0003.24
2024-01-14 01:36:00,SystemResetWarning,0825.1,5.01,000.00,019.1,018.6,000.0,027.4,020.1,3.3,0000.0,0003.59,0006.04,0003.22
2024-01-14 01:37:00,SystemResetWarning,0825.1,5.00,000.00,019.1,018.4,000.0,027.4,020.0,3.3,0000.0,0003.58,0005.86,0003.23
2024-01-14 01:38:00,SystemResetWarning,0825.1,5.00,000.00,019.1,018.3,000.0,027.4,020.0,3.3,0000.0,0003.54,0005.58,0003.24
2024-01-14 01:39:00,SystemResetWarning,0825.1,5.00,000.00,019.0,018.2,000.0,027.4,020.0,3.3,0000.0,0003.56,0005.68,0003.25
2024-01-14 01:40:00,SystemResetWarning,0825.2,5.00,000.00,019.0,018.1,000.0,027.4,020.0,3.3,0000.0,0003.57,0005.75,0003.24
2024-01-14 01:41:00,SystemResetWarning,0825.2,5.00,000.00,019.0,018.1,000.0,027.4,020.1,3.3,0000.0,0003.61,0005.95,0003.24
2024-01-14 01:42:00,SystemResetWarning,0825.1,5.00,000.00,019.0,018.3,000.0,027.4,020.5,3.3,0000.0,0003.60,0005.96,0003.24
2024-01-14 01:43:00,SystemResetWarning,0825.1,5.02,000.00,019.2,019.0,000.0,027.4,020.9,3.3,0000.0,0003.58,0006.32,0003.23
2024-01-14 01:44:00,SystemResetWarning,0825.2,5.00,000.00,019.3,019.4,000.0,027.5,021.1,3.3,0000.0,0003.57,0006.53,0003.22
2024-01-14 01:45:00,SystemResetWarning,0825.3,4.99,000.00,019.3,019.3,000.0,027.5,020.7,3.3,0000.0,0003.56,0006.51,0003.21
2024-01-14 01:46:00,SystemResetWarning,0825.2,5.00,000.00,019.3,019.1,000.0,027.5,020.4,3.2,0000.0,0003.54,0006.42,0003.22
2024-01-14 01:47:00,SystemResetWarning,0825.1,5.01,000.00,019.2,018.8,000.0,027.4,020.2,3.3,0000.0,0003.55,0006.58,0003.21
2024-01-14 01:48:00,SystemResetWarning,0825.2,5.00,000.00,019.2,018.6,000.0,027.4,020.1,3.3,0000.0,0003.53,0006.93,0003.20
2024-01-14 01:49:00,SystemResetWarning,0825.2,5.00,000.00,019.1,018.4,000.0,027.4,020.0,3.3,0000.0,0003.53,0006.75,0003.19
2024-01-14 01:50:00,SystemResetWarning,0825.2,5.00,000.00,019.1,018.3,000.0,027.4,020.0,3.3,0000.0,0003.52,0006.68,0003.18
2024-01-14 01:51:00,SystemResetWarning,0825.2,4.99,000.00,019.0,018.2,000.0,027.4,020.0,3.3,0000.0,0003.50,0006.58,0003.20
2024-01-14 01:52:00,SystemResetWarning,0825.3,4.99,000.00,019.0,018.0,000.0,027.4,020.0,3.3,0000.0,0003.48,0006.57,0003.20
2024-01-14 01:53:00,SystemResetWarning,0825.2,4.99,000.00,019.0,018.0,000.0,027.4,020.0,3.3,0000.0,0003.50,0006.68,0003.21
2024-01-14 01:54:00,SystemResetWarning,0825.1,5.01,000.00,019.0,018.2,000.0,027.4,020.4,3.3,0000.0,0003.52,0006.49,0003.22
2024-01-14 01:55:00,SystemResetWarning,0825.2,5.01,000.00,019.1,018.8,000.0,027.4,020.9,3.3,0000.0,0003.53,0006.12,0003.24
2024-01-14 01:56:00,SystemResetWarning,0825.2,4.99,000.00,019.2,019.1,000.0,027.4,020.8,3.3,0000.0,0003.53,0005.95,0003.25
2024-01-14 01:57:00,SystemResetWarning,0825.1,4.99,000.00,019.2,019.0,000.0,027.4,020.5,3.3,0000.0,0003.52,0005.92,0003.25
2024-01-14 01:58:00,SystemResetWarning,0825.1,5.01,000.00,019.2,018.8,000.0,027.4,020.3,3.3,0000.0,0003.53,0005.98,0003.25
2024-01-14 01:59:00,SystemResetWarning,0825.1,5.01,000.00,019.1,018.6,000.0,027.4,020.1,3.3,0000.0,0003.54,0005.54,0003.26
